STARLINK-32427, 61848

Orbit data source: Space-Track

STARLINK-32427, 61848 is a payload satellite owned by SpaceX/Seattle (US) in LEO that was launched on Thu, 07 Nov 2024 UTC via an FALCON 9 launch vehicle from the Air Force Eastern Test Range (AFETR). Payload-class satellites include a variety of spacecraft equipped with specific instruments for various scientific and technological missions. These include communications satellites like Starlink; space stations such as the ISS; scientific satellites like the Hubble; Earth observation satellites from companies like Planet Labs, Umbra, and HawkEye 360; GPS; miniature CubeSats for education and research; and military/defense satellites.

Loading next visibility...
Identifier
61848, 2024-202D
Orbit
LEO
Last TLE update
16 hours ago
Origin
Manufacturer
SpaceX/Seattle
Mission
Operational Commercial Communications
Bus & Motor
STARLINK V2M, Unknown motor
Mass
730 kg wet, ~700 kg dry
Launch date (UTC)
2024-11-07 (8 months ago)
Launch vehicle
FALCON 9
Launch site
Air Force Eastern Test Range (AFETR)
Object type
Payload
Rocket body
Debris
Shape & HBR
Box + 2 Pan, 29 m
Radar Cross Section
33.884 m², Large (>1 m²)

Expand to show TLE details & history

TLE from 16 hours ago
0 STARLINK-32427
1 61848U 24202D   25188.67195970 -.00052788  00000-0 -19051-2 0  9995
2 61848  43.0020 170.6285 0001224 272.2362  87.8350 15.27876342 37983
Epoch: 2025-07-07T16:07Z
TLE epoch observation values (Epoch: 2025-07-07T16:07:37.318Z)
Latitude
0.00003°
Longitude
2.84509°
Altitude
481.906 km
Speed
7.626 km/s
True Right ascension
11h 22m 30s
True Declination
0° 00' 00"
Sunlit
Object was in daylight at epoch
Visualization orbit readout
Latitude
-23.58203°
Longitude
-28.55516°
Altitude
487.446 km
Speed
7.622 km/s
Apparent Right ascension
08h 36m 53s
Apparent Declination
-31° 47' 23"
Sunlit
Object is in daylight
Visualization observer readout
Local Sidereal Time
19:45:16
Azimuth
303.908° NW
Elevation
-76.779°
Doppler factor
1
Orbital elements
Apogee altitude
484.947 km
Perigee altitude
483.267 km
Semi-major axis
6,862.244 km
Eccentricity
0.00012
Inclination
43.002°
RAAN
170.6285°
Arg. of periapsis
272.2362°
True anomaly
Unknown
Mean anomaly
87.835°
Eccentric anomaly
Unknown
Mean motion
3.81807 °/min
Orbital period
94.29 mins
BSTAR
-0.0019051
Loading maneuver chart data...
Loading SW <> Apogee altitude chart data...
Loading historical data...
Loading historical data...
Loading historical data...
Loading historical data...
Loading historical data...
Loading historical data...
Loading historical data...

STARLINK-32427 Visibility forecast

Observer location: undefined°, undefined°

Span
Click to sort rows by Start time (UTC) header in descending order
Start Az.
Max El. time (UTC)
Max El. Az.
Max El.
End time (UTC)
End Az.
5 mins2025-07-08 08:19:40.801Z261.654° W2025-07-08 08:21:40.801Z222.556° SW22.448°2025-07-08 08:24:40.801Z161.55° S
4 mins2025-07-09 01:16:40.801Z185.562° SSW2025-07-09 01:18:40.801Z141.137° SSE21.576°2025-07-09 01:20:40.801Z101.067° ESE
6 mins2025-07-09 02:54:40.801Z252.132° W2025-07-09 02:56:40.801Z255.952° W42.63°2025-07-09 03:00:40.801Z71.766° E
6 mins2025-07-09 04:33:40.801Z287.327° WNW2025-07-09 04:36:40.801Z24.352° NE36.831°2025-07-09 04:39:40.801Z75.992° E
5 mins2025-07-09 06:13:40.801Z290.991° WNW2025-07-09 06:15:40.801Z81.339° E44.119°2025-07-09 06:18:40.801Z105.725° ESE
|